Weather in Sovetskiy

Russia / Novosibirsk Oblast     54°01′45″N   77°01′57″E
temp.,
°C
wind,
m/s
gust,
m/s
humid.,
%
clouds,
%
prec.,
mm/h
press.,
hPa
HPBL,
m
5 december, sun
sun501:00−1sw4992100 0.0 1029381
04:00−2ssw51094100 0.0 1028406
07:00−2s5994100 0.0 1026254
10:00−2ssw5119442 0.0 1025261
13:00−3ssw5119484 0.0 1024256
16:00−2ssw4109278 0.0 1022225
19:00−4ssw5119188 0.0 1022184
22:00−3sw51289100 0.0 1022213
6 december, mon
mon601:00−3ssw41191100 0.0 1021199
04:00−4ssw489469 0.0 1020121
07:00−6ssw379474 0.0 101983
10:00−9ssw339689 0.0 101941
13:00−6sw3595100 0.0 1018106
16:00−5sw3594100 0.0 1017111
19:00−5ssw3693100 0.0 1016114
22:00−3sw41093100 0.0 1015330
7 december, tue
tue701:00−2sw61293100 0.2 1014440
04:00−4wsw6129488 0.2 1015458
07:00−4wnw8128699 0.3 1018643
10:00−11wnw6119383 0.0 1023332
13:00−13wnw5109255 0.0 1027374
16:00−15wnw59915 0.0 1030288
19:00−19wnw35975 0.0 103363
22:00−22wnw22995 0.0 103516
8 december, wed
wed801:00−23wsw221005 0.0 103711
04:00−24wsw221005 0.0 103722
07:00−24wsw221005 0.0 103723
10:00−24sw2210017 0.0 103823
13:00−19wsw24945 0.0 1038110
16:00−18wsw23955 0.0 103751
19:00−22wsw2210012 0.0 103933
22:00−23w2210044 0.0 104029
9 december, thu
thu901:00−24w2210018 0.0 104131
04:00−24w221005 0.0 104217
07:00−23w34985 0.0 104351
10:00−23wsw33985 0.0 104437
13:00−19sw35915 0.0 1044128
16:00−17ssw369051 0.0 1043116
19:00−16ssw489062 0.0 1043124
22:00−14ssw498879 0.0 1042164